Location: UBC Liquid-Mirror Observatory
(49.2876°N, 122.5728°W)
Time: 20:07:34
(UTC-08:00)

Amateur Radio Satellites - All Passes

Search period start: 27 November 2014 19:37
Search period end: 28 November 2014 19:37
Location: UBC Liquid-Mirror Observatory, 49.2876°N, 122.5728°W

Satellite Date Start Highest point End Downlink Frequencies (MHz)
Time Altitude Azimuth
DX 1 27 Nov 19:45:01 19:48:09 20° 60° (ENE) 19:51:17 434.975-435.025
UWE-3 27 Nov 19:46:53 19:48:07 11° 56° (NE) 19:49:21 435.000/436.395/437.385
PRISM 27 Nov 19:47:15 19:50:25 21° 299° (WNW) 19:53:34 437.425
CUBEBUG 2 27 Nov 19:49:54 19:51:59 14° 58° (ENE) 19:54:03 437.445
AIST 2 27 Nov 19:52:16 19:55:42 24° 115° (ESE) 19:59:11 435.215
BRITE-PL 27 Nov 19:57:06 20:01:54 63° 73° (ENE) 20:06:20 437.365/2234.400
DOVE 4 27 Nov 20:05:32 20:09:46 42° 70° (ENE) 20:13:48 437.250
CUTE 1.7 + AOD 2 27 Nov 20:08:02 20:12:15 79° 75° (ENE) 20:16:31 437.475
ZACube-1 27 Nov 20:15:37 20:18:26 18° 61° (ENE) 20:21:14 437.345
VELOX 1 27 Nov 20:24:02 20:26:54 17° 58° (ENE) 20:29:45 145.980
CINEMA 3 27 Nov 20:26:39 20:30:43 42° 70° (ENE) 20:34:41 145.822/145.860
PCSat 27 Nov 20:28:43 20:34:03 57° 311° (NW) 20:39:26 145.827
BEESAT 3 27 Nov 20:29:02 20:33:11 83° 310° (NW) 20:37:23 437.485
SEEDS 27 Nov 20:38:36 20:42:44 58° 259° (W) 20:46:56 437.485
UKube-1 27 Nov 20:42:00 20:46:18 61° 71° (ENE) 20:50:37 .
STRAND 1 27 Nov 20:45:41 20:49:33 22° 302° (WNW) 20:53:25 437.568
DELFI C3 27 Nov 20:46:12 20:50:13 60° 72° (ENE) 20:54:16 145.870
BEESAT 2 27 Nov 20:46:14 20:50:21 65° 312° (NW) 20:54:34 435.950
FUNcube-1 27 Nov 20:48:54 20:52:41 35° 68° (ENE) 20:56:28 145.935
AISAT 27 Nov 20:50:24 20:54:13 28° 64° (ENE) 20:58:02 437.250
AAUSAT CUBESAT 2 27 Nov 20:51:20 20:55:25 56° 260° (W) 20:59:34 437.432
Oscar 11 27 Nov 20:51:45 20:56:03 80° 74° (ENE) 21:00:24 145.826/435.025
50 SAT 27 Nov 20:53:56 20:57:01 22° 63° (ENE) 21:00:07 437.505
GOMX 1 27 Nov 20:56:43 21:01:14 49° 260° (W) 21:05:30 467.674
CUBEBUG 1 27 Nov 20:57:24 20:59:44 14° 57° (ENE) 21:02:04 437.445
GONETS M04 27 Nov 20:59:04 21:06:13 29° 280° (W) 21:13:20
AIST 1 27 Nov 21:04:55 21:07:51 17° 295° (WNW) 21:10:48
CUBESAT XI-V 27 Nov 21:06:16 21:08:01 12° 306° (NW) 21:09:44 437.345
HO-68 27 Nov 21:06:58 21:13:35 39° 263° (W) 21:20:15 435.675
COMPASS 1 27 Nov 21:08:31 21:12:19 34° 264° (W) 21:16:10 437.405
CANX-2 27 Nov 21:10:35 21:14:00 24° 267° (W) 21:17:28 2200.000
HUMSAT D 27 Nov 21:18:06 21:22:00 43° 70° (ENE) 21:25:55 437.325/437.525
DX 1 27 Nov 21:19:42 21:24:01 57° 259° (WSW) 21:28:22 434.975-435.025
UWE-3 27 Nov 21:19:48 21:24:00 82° 75° (ENE) 21:28:11 435.000/436.395/437.385
CUBEBUG 2 27 Nov 21:23:56 21:28:09 79° 257° (WSW) 21:32:21 437.445
RS-15 27 Nov 21:29:43 21:39:48 38° 13° (NNE) 21:50:11 29.354- 29.394
AIST 2 27 Nov 21:29:55 21:34:05 51° 315° (NW) 21:38:19 435.215
BRITE-PL 27 Nov 21:37:34 21:40:46 18° 269° (W) 21:43:51 437.365/2234.400
DOVE 4 27 Nov 21:44:10 21:47:44 23° 267° (W) 21:51:11 437.250
ANTELSAT 27 Nov 21:46:11 21:48:50 15° 89° (E) 21:51:30 437.575/2403.000
CUTE 1.7 + AOD 2 27 Nov 21:47:05 21:48:46 12° 273° (W) 21:50:27 437.475
ZACube-1 27 Nov 21:50:20 21:54:27 56° 259° (W) 21:58:34 437.345
TISAT 1 27 Nov 21:56:27 21:58:49 15° 58° (ENE) 22:01:11 437.305
VELOX 1 27 Nov 21:58:32 22:03:00 71° 257° (WSW) 22:07:29 145.980
ESTCUBE 1 27 Nov 22:04:36 22:09:03 56° 71° (ENE) 22:13:32 437.505/2401.250
CINEMA 3 27 Nov 22:04:47 22:08:08 22° 267° (W) 22:11:26 145.822/145.860
NANOSAT C BR1 27 Nov 22:05:59 22:08:31 15° 90° (E) 22:11:03 145.865
BEESAT 3 27 Nov 22:09:01 22:12:03 19° 331° (NNW) 22:15:06 437.485
SPROUT 27 Nov 22:12:12 22:15:07 18° 60° (ENE) 22:18:03 437.525
PCSat 27 Nov 22:14:56 22:18:39 18° 334° (NNW) 22:22:23 145.827
QB50P1 27 Nov 22:15:47 22:18:51 19° 92° (E) 22:21:55 145.935-145.965
BUGSAT 1 27 Nov 22:15:50 22:18:18 15° 90° (E) 22:20:44 437.445
UKube-1 27 Nov 22:20:04 22:22:52 17° 269° (W) 22:25:42 .
DELFI C3 27 Nov 22:23:33 22:25:56 15° 271° (W) 22:28:20 145.870
FUNcube-1 27 Nov 22:25:38 22:29:08 26° 266° (W) 22:32:39 145.935
AISAT 27 Nov 22:26:34 22:30:45 38° 262° (W) 22:34:56 437.250
BEESAT 2 27 Nov 22:26:40 22:29:27 17° 334° (NNW) 22:32:15 435.950
50 SAT 27 Nov 22:28:18 22:32:07 41° 262° (W) 22:35:58 437.505
Oscar 11 27 Nov 22:31:02 22:32:49 12° 273° (W) 22:34:37 145.826/435.025
CUBEBUG 1 27 Nov 22:31:02 22:35:30 86° 256° (WSW) 22:39:58 437.445
TIGRISAT 27 Nov 22:37:49 22:42:04 45° 99° (E) 22:46:24 435.000
POPSAT HIP 1 27 Nov 22:40:21 22:44:12 33° 96° (E) 22:48:01 437.405
CUSAT 1 27 Nov 22:47:14 22:51:29 39° 74° (ENE) 22:57:04 437.405
BEESAT 27 Nov 22:47:14 22:48:14 11° 51° (NE) 22:49:13 436.000
UNISAT 6 27 Nov 22:52:36 22:57:02 63° 102° (ESE) 23:01:32 437.425
HUMSAT D 27 Nov 22:54:55 22:58:02 21° 268° (W) 23:01:10 437.325/437.525
UWE-3 27 Nov 22:59:53 23:01:09 11° 273° (W) 23:02:25 435.000/436.395/437.385
AIST 2 27 Nov 23:11:05 23:13:41 16° 337° (NNW) 23:16:19 435.215
POLYITAN 1 27 Nov 23:15:02 23:19:17 75° 103° (ESE) 23:23:31 437.675
QB50P2 27 Nov 23:16:10 23:20:26 77° 103° (ESE) 23:24:40 145.880/145.840
MaSat-1 27 Nov 23:16:53 23:19:02 32° 55° (NE) 23:21:12 437.345
AUBIESAT-1 27 Nov 23:17:30 23:21:14 29° 57° (ENE) 23:25:14 437.475
DUCHIFAT 1 27 Nov 23:20:47 23:25:02 84° 104° (ESE) 23:29:15 145.980
ANTELSAT 27 Nov 23:21:40 23:26:06 69° 287° (WNW) 23:30:37 437.575/2403.000
DANDE 27 Nov 23:22:29 23:26:49 64° 77° (ENE) 23:32:44 436.750
M-CUBED/EXP-1 PRIME 27 Nov 23:24:03 23:27:57 35° 59° (ENE) 23:32:10 437.505
TISAT 1 27 Nov 23:29:51 23:34:07 77° 257° (WSW) 23:38:24 437.305
ISS 27 Nov 23:36:17 23:39:28 46° 151° (SSE) 23:42:38 145.825
ITUPSAT 1 27 Nov 23:40:34 23:44:38 28° 63° (ENE) 23:48:43 437.325
NANOSAT C BR1 27 Nov 23:40:39 23:44:50 61° 288° (WNW) 23:48:59 145.865
ESTCUBE 1 27 Nov 23:43:01 23:46:17 19° 269° (W) 23:49:35 437.505/2401.250
RS-15 27 Nov 23:43:16 23:54:25 71° 44° (NE) 00:06:00 29.354- 29.394
SPROUT 27 Nov 23:46:33 23:50:49 60° 259° (WSW) 23:55:06 437.525
BUGSAT 1 27 Nov 23:50:10 23:54:12 57° 288° (WNW) 23:58:10 437.445
SWISSCUBE 27 Nov 23:50:15 23:54:37 36° 65° (ENE) 23:59:00 437.505
QB50P1 27 Nov 23:50:57 23:55:02 48° 290° (WNW) 23:59:06 145.935-145.965
PCSat 28 Nov 00:02:26 00:04:23 12° 1° (N) 00:06:19 145.827
CUBEBUG 1 28 Nov 00:11:29 00:12:34 11° 274° (W) 00:13:40 437.445
KKS-1 28 Nov 00:14:08 00:16:29 14° 57° (ENE) 00:18:49 437.445
TIGRISAT 28 Nov 00:15:05 00:18:37 24° 297° (WNW) 00:22:14 435.000
POPSAT HIP 1 28 Nov 00:16:25 00:20:03 29° 295° (WNW) 00:23:41 437.405
BEESAT 28 Nov 00:20:24 00:25:07 60° 71° (ENE) 00:29:52 436.000
YUBILEINY 28 Nov 00:25:28 00:30:06 16° 71° (ENE) 00:34:42 435.215
UNISAT 6 28 Nov 00:30:23 00:33:26 18° 300° (WNW) 00:36:30 437.425
CUSAT 1 28 Nov 00:30:27 00:34:36 31° 265° (W) 00:39:53 437.405
AUBIESAT-1 28 Nov 00:52:06 00:56:05 40° 258° (WSW) 01:00:25 437.475
POLYITAN 1 28 Nov 00:52:21 00:54:43 15° 302° (WNW) 00:57:04 437.675
Oscar 19 28 Nov 00:53:25 00:57:36 24° 92° (E) 01:01:46 437.125/150
QB50P2 28 Nov 00:53:31 00:55:49 14° 302° (WNW) 00:58:06 145.880/145.840
AIST 2 28 Nov 00:53:43 00:54:08 10° 1° (N) 00:54:33 435.215
DUCHIFAT 1 28 Nov 00:58:17 01:00:19 13° 303° (WNW) 01:02:20 145.980
M-CUBED/EXP-1 PRIME 28 Nov 00:59:14 01:03:02 32° 260° (W) 01:07:08 437.505
ANTELSAT 28 Nov 01:01:05 01:02:08 11° 306° (NW) 01:03:12 437.575/2403.000
STARS 28 Nov 01:03:35 01:07:15 27° 64° (ENE) 01:10:56 437.465
DANDE 28 Nov 01:07:02 01:10:12 18° 268° (W) 01:13:59 436.750
ISS 28 Nov 01:12:49 01:16:05 61° 350° (N) 01:19:21 145.825
ITUPSAT 1 28 Nov 01:17:44 01:22:21 44° 261° (W) 01:26:59 437.325
SWISSCUBE 28 Nov 01:28:10 01:32:30 33° 264° (W) 01:36:53 437.505
BEESAT 3 28 Nov 01:29:59 01:31:59 13° 19° (NNE) 01:33:58 437.485
PCSat 28 Nov 01:46:15 01:50:04 19° 27° (NNE) 01:53:53 145.827
BEESAT 2 28 Nov 01:47:10 01:49:33 15° 22° (NNE) 01:51:55 435.950
KKS-1 28 Nov 01:48:03 01:52:30 86° 255° (WSW) 01:56:59 437.445
ITAMSAT 1 28 Nov 01:51:17 01:55:52 31° 95° (E) 02:00:25 435.822/435.867
RS-15 28 Nov 01:56:03 02:06:19 44° 249° (WSW) 02:17:00 29.354- 29.394
BEESAT 28 Nov 01:59:55 02:03:22 20° 269° (W) 02:06:52 436.000
SO-50 28 Nov 02:10:46 02:12:37 12° 108° (ESE) 02:14:30 436.795
YUBILEINY 28 Nov 02:16:28 02:25:09 68° 93° (E) 02:33:49 435.215
AIST 2 28 Nov 02:31:38 02:34:31 17° 26° (NNE) 02:37:24 435.215
Oscar 19 28 Nov 02:32:13 02:37:16 54° 291° (WNW) 02:42:17 437.125/150
Gurwin Techsat 1B 28 Nov 02:36:28 02:41:36 46° 99° (E) 02:46:40 435.225
STARS 28 Nov 02:39:28 02:43:36 39° 262° (W) 02:47:45 437.465
ISS 28 Nov 02:49:41 02:52:58 63° 10° (N) 02:56:14 145.825
HORYU 2 28 Nov 02:53:50 02:57:46 29° 95° (E) 03:01:42 437.375
BEESAT 3 28 Nov 03:07:23 03:11:21 38° 41° (NE) 03:15:16 437.485
AO-7 28 Nov 03:08:11 03:14:23 22° 89° (E) 03:20:32 29.400- 29.500
MOZHAYETS 4 28 Nov 03:09:52 03:13:35 25° 63° (ENE) 03:17:21
BEESAT 2 28 Nov 03:24:44 03:28:51 47° 44° (NE) 03:32:54 435.950
KKS-1 28 Nov 03:28:44 03:29:51 11° 274° (W) 03:30:59 437.445
PCSat 28 Nov 03:29:13 03:34:37 60° 50° (NE) 03:39:59 145.827
ITAMSAT 1 28 Nov 03:30:37 03:35:30 43° 294° (WNW) 03:40:21 435.822/435.867
SO-50 28 Nov 03:47:48 03:52:21 80° 128° (SE) 03:57:05 436.795
AIST 2 28 Nov 04:09:41 04:14:00 62° 47° (NE) 04:18:15 435.215
Oscar 19 28 Nov 04:14:36 04:15:31 10° 311° (NW) 04:16:27 437.125/150
YUBILEINY 28 Nov 04:14:51 04:22:39 34° 297° (WNW) 04:30:28 435.215
Gurwin Techsat 1B 28 Nov 04:16:47 04:21:24 31° 298° (WNW) 04:25:59 435.225
ISS 28 Nov 04:26:24 04:29:34 44° 210° (SSW) 04:32:43 145.825
HORYU 2 28 Nov 04:30:23 04:34:30 36° 294° (WNW) 04:38:37 437.375
BEESAT 3 28 Nov 04:45:45 04:49:33 33° 241° (WSW) 04:53:18 437.485
MOZHAYETS 4 28 Nov 04:46:09 04:50:35 46° 262° (W) 04:55:04
STRAND 1 28 Nov 04:48:10 04:52:12 24° 59° (ENE) 04:56:14 437.568
O/OREOS (USA 219) 28 Nov 04:53:22 04:56:50 22° 103° (ESE) 05:00:19 437.305
CUBESAT XI-V 28 Nov 04:57:55 05:01:46 25° 63° (ENE) 05:05:37 437.345
AO-7 28 Nov 04:59:53 05:08:19 87° 110° (ESE) 05:16:43 29.400- 29.500
BEESAT 2 28 Nov 05:03:25 05:06:56 26° 244° (WSW) 05:10:26 435.950
JAS-2 28 Nov 05:04:09 05:11:02 48° 96° (E) 05:17:06 435.910
PRISM 28 Nov 05:05:47 05:09:58 66° 72° (ENE) 05:14:12 437.425
PCSat 28 Nov 05:13:12 05:17:41 27° 250° (WSW) 05:22:08 145.827
AIST 1 28 Nov 05:28:52 05:32:30 24° 69° (ENE) 05:36:05
SO-50 28 Nov 05:29:37 05:33:27 25° 329° (NNW) 05:37:24 436.795
CUTE-I 28 Nov 05:29:52 05:33:44 20° 90° (E) 05:37:35 437.470
AIST 2 28 Nov 05:49:06 05:52:15 20° 247° (WSW) 05:55:21 435.215
GONETS M04 28 Nov 06:15:12 06:20:29 18° 72° (ENE) 06:25:45
STRAND 1 28 Nov 06:25:56 06:31:01 60° 258° (WSW) 06:36:08 437.568
Cubesat XI-IV 28 Nov 06:28:16 06:33:34 60° 102° (ESE) 06:38:48 437.490
O/OREOS (USA 219) 28 Nov 06:31:36 06:35:57 48° 302° (WNW) 06:40:18 437.305
CUBESAT XI-V 28 Nov 06:34:24 06:38:58 47° 261° (W) 06:43:33 437.345
PRISM 28 Nov 06:43:36 06:45:59 15° 271° (W) 06:48:23 437.425
JAS-2 28 Nov 06:49:22 06:55:58 40° 299° (WNW) 07:01:53 435.910
AO-7 28 Nov 06:53:26 07:00:15 29° 312° (NW) 07:07:04 29.400- 29.500
AIST 1 28 Nov 07:06:14 07:10:19 38° 268° (W) 07:14:20
CUTE-I 28 Nov 07:09:01 07:14:19 68° 289° (WNW) 07:19:34 437.470
SO-50 28 Nov 07:13:22 07:15:39 13° 354° (N) 07:17:58 436.795
CUTE 1.7 + AOD 2 28 Nov 07:51:59 07:52:59 11° 86° (E) 07:53:59 437.475
BRITE-PL 28 Nov 07:59:28 08:01:02 12° 88° (E) 08:02:35 437.365/2234.400
GONETS M04 28 Nov 08:06:56 08:15:41 74° 95° (E) 08:24:31
Cubesat XI-IV 28 Nov 08:09:02 08:13:17 25° 301° (WNW) 08:17:31 437.490
O/OREOS (USA 219) 28 Nov 08:15:45 08:16:30 10° 324° (NW) 08:17:15 437.305
SEEDS 28 Nov 08:20:03 08:23:02 18° 91° (E) 08:26:02 437.485
UNISAT 6 28 Nov 08:22:16 08:24:14 13° 56° (ENE) 08:26:12 437.425
HO-68 28 Nov 08:29:21 08:35:51 35° 95° (E) 08:42:18 435.675
AAUSAT CUBESAT 2 28 Nov 08:31:39 08:34:36 18° 91° (E) 08:37:33 437.432
JAS-2 28 Nov 08:37:09 08:38:59 11° 322° (NW) 08:40:47 435.910
Oscar 11 28 Nov 08:37:20 08:38:41 11° 86° (E) 08:40:02 145.826/435.025
POLYITAN 1 28 Nov 08:39:15 08:41:22 14° 57° (ENE) 08:43:29 437.675
QB50P2 28 Nov 08:40:07 08:42:18 14° 58° (ENE) 08:44:29 145.880/145.840
DUCHIFAT 1 28 Nov 08:44:11 08:46:33 15° 58° (ENE) 08:48:56 145.980
COMPASS 1 28 Nov 08:48:14 08:51:59 29° 95° (E) 08:55:42 437.405
AO-7 28 Nov 08:48:50 08:50:19 11° 337° (NNW) 08:51:47 29.400- 29.500
ANTELSAT 28 Nov 08:49:43 08:53:02 22° 62° (ENE) 08:56:22 437.575/2403.000
CUTE-I 28 Nov 08:51:00 08:53:27 13° 309° (NW) 08:55:54 437.470
CANX-2 28 Nov 08:51:01 08:55:09 44° 98° (E) 08:59:17 2200.000
GOMX 1 28 Nov 08:54:13 08:57:57 31° 96° (E) 09:01:44 467.674
SO-50 28 Nov 08:55:03 08:58:08 17° 19° (NNE) 09:01:14 436.795
NANOSAT C BR1 28 Nov 09:03:01 09:06:15 22° 62° (ENE) 09:09:29 145.865
DX 1 28 Nov 09:04:56 09:07:56 18° 91° (E) 09:10:56 434.975-435.025
UWE-3 28 Nov 09:07:27 09:09:11 12° 88° (E) 09:10:56 435.000/436.395/437.385
BUGSAT 1 28 Nov 09:10:08 09:13:21 21° 63° (ENE) 09:16:32 437.445
CUBEBUG 2 28 Nov 09:12:00 09:14:35 16° 90° (E) 09:17:13 437.445
QB50P1 28 Nov 09:12:55 09:16:27 26° 64° (ENE) 09:20:00 145.935-145.965
CUTE 1.7 + AOD 2 28 Nov 09:25:15 09:29:34 89° 98° (E) 09:33:53 437.475
ZACube-1 28 Nov 09:35:30 09:38:40 20° 92° (E) 09:41:52 437.345
BRITE-PL 28 Nov 09:35:59 09:40:08 75° 286° (WNW) 09:44:20 437.365/2234.400
POPSAT HIP 1 28 Nov 09:37:29 09:41:31 44° 69° (ENE) 09:45:34 437.405
DOVE 4 28 Nov 09:37:42 09:41:52 65° 102° (ESE) 09:46:08 437.250
TIGRISAT 28 Nov 09:41:01 09:45:13 65° 73° (ENE) 09:49:28 435.000
VELOX 1 28 Nov 09:46:26 09:49:17 17° 90° (E) 09:52:07 145.980
CINEMA 3 28 Nov 09:54:04 09:58:15 60° 101° (E) 10:02:33 145.822/145.860
SEEDS 28 Nov 09:55:02 09:59:12 53° 289° (WNW) 10:03:22 437.485
UNISAT 6 28 Nov 09:56:08 10:00:24 88° 256° (WSW) 10:04:43 437.425
DELFI C3 28 Nov 09:58:10 10:02:17 60° 101° (E) 10:06:22 145.870
UKube-1 28 Nov 10:01:52 10:06:12 62° 102° (ESE) 10:10:29 .
50 SAT 28 Nov 10:05:30 10:08:34 20° 92° (E) 10:11:38 437.505
GONETS M04 28 Nov 10:05:46 10:13:24 32° 298° (WNW) 10:21:06
AAUSAT CUBESAT 2 28 Nov 10:06:28 10:10:36 52° 289° (WNW) 10:14:44 437.432
FUNcube-1 28 Nov 10:09:12 10:13:14 41° 98° (E) 10:17:20 145.935
Oscar 11 28 Nov 10:11:08 10:15:31 88° 284° (WNW) 10:19:53 145.826/435.025
POLYITAN 1 28 Nov 10:12:28 10:16:44 83° 256° (WSW) 10:21:00 437.675
QB50P2 28 Nov 10:13:24 10:17:39 82° 256° (WSW) 10:21:56 145.880/145.840
AISAT 28 Nov 10:13:37 10:17:32 30° 96° (E) 10:21:26 437.250
HO-68 28 Nov 10:16:53 10:23:53 57° 296° (WNW) 10:30:49 435.675
DUCHIFAT 1 28 Nov 10:17:40 10:21:55 75° 257° (WSW) 10:26:10 145.980
CUBEBUG 1 28 Nov 10:17:48 10:19:57 13° 88° (E) 10:22:05 437.445
COMPASS 1 28 Nov 10:23:55 10:27:44 33° 293° (WNW) 10:31:32 437.405
ANTELSAT 28 Nov 10:25:31 10:29:36 45° 261° (W) 10:33:44 437.575/2403.000
YUBILEINY 28 Nov 10:27:23 10:29:45 11° 40° (NE) 10:32:05 435.215
CANX-2 28 Nov 10:27:29 10:30:53 23° 297° (WNW) 10:34:16 2200.000
GOMX 1 28 Nov 10:32:29 10:36:05 29° 294° (WNW) 10:39:45 467.674
HUMSAT D 28 Nov 10:34:09 10:38:11 47° 99° (E) 10:42:15 437.325/437.525
SO-50 28 Nov 10:35:13 10:39:52 44° 41° (NE) 10:44:34 436.795
NANOSAT C BR1 28 Nov 10:37:46 10:41:52 47° 261° (W) 10:45:59 145.865
DX 1 28 Nov 10:40:16 10:44:32 55° 290° (WNW) 10:48:46 434.975-435.025
UWE-3 28 Nov 10:42:02 10:46:17 80° 285° (WNW) 10:50:37 435.000/436.395/437.385
BUGSAT 1 28 Nov 10:44:29 10:48:35 47° 260° (W) 10:52:40 437.445
CUBEBUG 2 28 Nov 10:47:31 10:51:42 62° 287° (WNW) 10:56:00 437.445
QB50P1 28 Nov 10:48:17 10:52:14 37° 263° (W) 10:56:12 145.935-145.965
CUTE 1.7 + AOD 2 28 Nov 11:02:55 11:04:52 13° 303° (WNW) 11:06:49 437.475
ZACube-1 28 Nov 11:11:13 11:15:18 47° 290° (WNW) 11:19:26 437.345
TISAT 1 28 Nov 11:12:38 11:14:35 13° 88° (E) 11:16:32 437.305
POPSAT HIP 1 28 Nov 11:14:21 11:17:38 22° 267° (W) 11:20:56 437.405
DOVE 4 28 Nov 11:16:41 11:19:15 16° 300° (WNW) 11:21:50 437.250
TIGRISAT 28 Nov 11:20:05 11:22:28 15° 271° (W) 11:24:52 435.000
VELOX 1 28 Nov 11:21:55 11:26:19 62° 289° (WNW) 11:30:39 145.980
ESTCUBE 1 28 Nov 11:30:06 11:34:39 69° 102° (ESE) 11:39:10 437.505/2401.250
SPROUT 28 Nov 11:30:11 11:33:08 18° 91° (E) 11:36:04 437.525
CINEMA 3 28 Nov 11:32:19 11:35:07 18° 299° (WNW) 11:37:57 145.822/145.860
DELFI C3 28 Nov 11:34:29 11:37:11 17° 299° (WNW) 11:39:52 145.870
ITAMSAT 1 28 Nov 11:37:21 11:39:50 14° 52° (NE) 11:42:19 435.822/435.867
UNISAT 6 28 Nov 11:37:33 11:37:55 10° 274° (W) 11:38:17 437.425
UKube-1 28 Nov 11:39:00 11:41:57 18° 301° (WNW) 11:44:53 .
50 SAT 28 Nov 11:40:13 11:44:05 43° 290° (WNW) 11:47:58 437.505
FUNcube-1 28 Nov 11:46:02 11:49:26 24° 296° (WNW) 11:52:51 145.935
Oscar 11 28 Nov 11:49:03 11:51:02 13° 303° (WNW) 11:53:00 145.826/435.025
AISAT 28 Nov 11:50:13 11:54:12 34° 294° (WNW) 11:58:11 437.250
CUBEBUG 1 28 Nov 11:52:30 11:56:53 75° 286° (WNW) 12:01:13 437.445
HO-68 28 Nov 12:06:11 12:10:09 16° 318° (NW) 12:14:06 435.675
CUSAT 1 28 Nov 12:06:59 12:08:44 16° 91° (E) 12:10:32 437.405
HUMSAT D 28 Nov 12:10:37 12:13:45 21° 297° (WNW) 12:16:54 437.325/437.525
Oscar 19 28 Nov 12:14:13 12:19:10 52° 69° (ENE) 12:24:09 437.125/150
SO-50 28 Nov 12:15:56 12:20:24 37° 241° (WSW) 12:24:53 436.795
BEESAT 28 Nov 12:19:01 12:20:30 11° 86° (E) 12:21:58 436.000
UWE-3 28 Nov 12:20:52 12:22:10 11° 304° (NW) 12:23:28 435.000/436.395/437.385
YUBILEINY 28 Nov 12:21:28 12:29:40 42° 68° (ENE) 12:37:46 435.215
AO-7 28 Nov 12:24:00 12:28:21 16° 33° (NNE) 12:32:43 29.400- 29.500
Gurwin Techsat 1B 28 Nov 12:24:03 12:27:45 20° 56° (ENE) 12:31:28 435.225
AUBIESAT-1 28 Nov 12:31:54 12:34:29 14° 92° (E) 12:37:03 437.475
M-CUBED/EXP-1 PRIME 28 Nov 12:38:34 12:41:54 18° 94° (E) 12:45:10 437.505
DANDE 28 Nov 12:44:22 12:46:53 44° 98° (E) 12:49:27 436.750
TISAT 1 28 Nov 12:46:44 12:50:58 74° 287° (WNW) 12:55:09 437.305
SPROUT 28 Nov 13:05:23 13:09:35 54° 289° (WNW) 13:13:44 437.525
ESTCUBE 1 28 Nov 13:08:03 13:11:03 18° 301° (WNW) 13:14:02 437.505/2401.250
ITAMSAT 1 28 Nov 13:13:15 13:18:26 71° 71° (ENE) 13:23:39 435.822/435.867
ITUPSAT 1 28 Nov 13:14:13 13:18:39 35° 97° (E) 13:23:02 437.325
O/OREOS (USA 219) 28 Nov 13:19:35 13:22:24 16° 43° (NE) 13:25:12 437.305
SWISSCUBE 28 Nov 13:23:55 13:28:35 47° 99° (E) 13:33:11 437.505
CUBEBUG 1 28 Nov 13:31:11 13:32:30 11° 306° (NW) 13:33:48 437.445
KKS-1 28 Nov 13:36:45 13:39:04 14° 88° (E) 13:41:22 437.445
JAS-2 28 Nov 13:40:26 13:43:01 12° 39° (NE) 13:45:36 435.910
CUSAT 1 28 Nov 13:50:11 13:51:50 15° 294° (WNW) 13:53:33 437.405
BEESAT 28 Nov 13:54:18 13:59:08 82° 104° (ESE) 14:03:56 436.000
Oscar 19 28 Nov 13:54:39 13:58:49 25° 268° (W) 14:03:00 437.125/150
HORYU 2 28 Nov 13:56:25 14:00:38 45° 69° (ENE) 14:04:53 437.375
Gurwin Techsat 1B 28 Nov 14:01:49 14:07:08 79° 256° (WSW) 14:12:30 435.225
AUBIESAT-1 28 Nov 14:05:10 14:10:08 90° 113° (ESE) 14:14:57 437.475
AO-7 28 Nov 14:11:23 14:19:08 46° 57° (ENE) 14:26:56 29.400- 29.500
M-CUBED/EXP-1 PRIME 28 Nov 14:12:28 14:17:26 74° 293° (WNW) 14:22:16 437.505
RS-15 28 Nov 14:15:37 14:23:29 24° 101° (E) 14:31:19 29.354- 29.394
YUBILEINY 28 Nov 14:18:22 14:26:44 53° 271° (W) 14:35:02 435.215
MaSat-1 28 Nov 14:22:27 14:24:53 26° 115° (ESE) 14:27:10 437.345
TISAT 1 28 Nov 14:25:15 14:26:02 10° 305° (NW) 14:26:50 437.305
STARS 28 Nov 14:25:26 14:29:14 28° 95° (E) 14:33:01 437.465
VERMONT LUNAR 28 Nov 14:45:38 14:48:11 18° 170° (S) 14:50:44 437.305
PHONESAT 2.4 28 Nov 14:46:34 14:49:02 17° 166° (SSE) 14:51:30 2401.200-2431.200
ITUPSAT 1 28 Nov 14:52:12 14:56:32 34° 295° (WNW) 15:00:49 437.325
ITAMSAT 1 28 Nov 14:54:50 14:58:28 19° 270° (W) 15:02:06 435.822/435.867
O/OREOS (USA 219) 28 Nov 14:57:59 15:02:29 89° 64° (ENE) 15:06:59 437.305
SWISSCUBE 28 Nov 15:02:15 15:06:13 26° 298° (WNW) 15:10:10 437.505
KKS-1 28 Nov 15:11:48 15:16:15 75° 287° (WNW) 15:20:41 437.445
JAS-2 28 Nov 15:18:58 15:26:04 40° 61° (ENE) 15:33:07 435.910
BEESAT 28 Nov 15:33:24 15:36:23 17° 303° (WNW) 15:39:23 436.000
HORYU 2 28 Nov 15:34:01 15:37:32 23° 267° (W) 15:41:05 437.375
AUBIESAT-1 28 Nov 15:41:14 15:44:27 18° 309° (NW) 15:47:39 437.475
Gurwin Techsat 1B 28 Nov 15:45:47 15:47:59 12° 275° (W) 15:50:11 435.225
M-CUBED/EXP-1 PRIME 28 Nov 15:48:55 15:51:40 15° 311° (NW) 15:54:25 437.505
MaSat-1 28 Nov 15:57:31 15:59:21 16° 311° (NW) 16:01:06 437.345
STARS 28 Nov 16:01:46 16:05:48 36° 293° (WNW) 16:09:48 437.465
AO-7 28 Nov 16:03:50 16:11:52 52° 259° (WSW) 16:19:59 29.400- 29.500
Cubesat XI-IV 28 Nov 16:16:01 16:20:22 26° 60° (ENE) 16:24:42 437.490
GONETS M04 28 Nov 16:17:15 16:20:49 13° 42° (NE) 16:24:21
YUBILEINY 28 Nov 16:19:11 16:21:20 11° 294° (WNW) 16:23:30 435.215
RS-15 28 Nov 16:23:07 16:34:02 80° 125° (SE) 16:45:02 29.354- 29.394
VERMONT LUNAR 28 Nov 16:23:17 16:25:57 19° 187° (S) 16:28:38 437.305
PHONESAT 2.4 28 Nov 16:24:16 16:27:07 21° 183° (S) 16:29:58 2401.200-2431.200
MOZHAYETS 4 28 Nov 16:37:15 16:41:26 32° 95° (E) 16:45:35
O/OREOS (USA 219) 28 Nov 16:39:35 16:41:10 12° 263° (W) 16:42:45 437.305
KKS-1 28 Nov 16:50:40 16:52:08 12° 306° (NW) 16:53:37 437.445
CUTE-I 28 Nov 16:55:31 17:00:40 49° 67° (ENE) 17:05:48 437.470
JAS-2 28 Nov 17:03:07 17:10:47 60° 261° (W) 17:18:31 435.910
HO-68 28 Nov 17:20:26 17:22:59 12° 37° (NE) 17:25:33 435.675
Cubesat XI-IV 28 Nov 17:54:50 18:00:07 58° 259° (W) 18:05:26 437.490
VERMONT LUNAR 28 Nov 18:03:00 18:03:36 10° 204° (SSW) 18:04:11 437.305
PHONESAT 2.4 28 Nov 18:03:20 18:05:07 13° 200° (SSW) 18:06:54 2401.200-2431.200
AIST 1 28 Nov 18:05:24 18:07:02 12° 81° (E) 18:08:39
AO-7 28 Nov 18:05:41 18:06:45 10° 281° (W) 18:07:49 29.400- 29.500
GONETS M04 28 Nov 18:12:04 18:20:33 47° 69° (ENE) 18:28:54
MOZHAYETS 4 28 Nov 18:14:27 18:18:42 35° 293° (WNW) 18:22:55
PCSat 28 Nov 18:16:27 18:20:29 22° 108° (ESE) 18:24:33 145.827
PRISM 28 Nov 18:20:27 18:24:41 62° 102° (ESE) 18:28:51 437.425
CUBESAT XI-V 28 Nov 18:27:11 18:31:25 32° 95° (E) 18:35:34 437.345
STRAND 1 28 Nov 18:32:25 18:37:03 34° 96° (E) 18:41:39 437.568
CUTE-I 28 Nov 18:36:23 18:40:58 28° 266° (W) 18:45:33 437.470
RS-15 28 Nov 18:37:04 18:47:27 46° 333° (NNW) 18:58:03 29.354- 29.394
BEESAT 3 28 Nov 18:45:35 18:48:14 17° 112° (ESE) 18:50:55 437.485
CUTE 1.7 + AOD 2 28 Nov 18:48:50 18:51:12 15° 59° (ENE) 18:53:35 437.475
JAS-2 28 Nov 18:53:51 18:57:22 13° 281° (W) 19:00:54 435.910
HO-68 28 Nov 19:02:15 19:08:54 43° 60° (ENE) 19:15:34 435.675
BEESAT 2 28 Nov 19:02:56 19:06:09 22° 115° (ESE) 19:09:24 435.950
DOVE 4 28 Nov 19:12:31 19:14:55 15° 59° (ENE) 19:17:17 437.250
BRITE-PL 28 Nov 19:13:28 19:17:23 26° 65° (ENE) 19:21:05 437.365/2234.400
SEEDS 28 Nov 19:16:45 19:20:03 23° 63° (ENE) 19:23:22 437.485
CINEMA 3 28 Nov 19:26:14 19:27:59 12° 57° (ENE) 19:29:42 145.822/145.860
AAUSAT CUBESAT 2 28 Nov 19:27:19 19:30:34 22° 63° (ENE) 19:33:49 437.432
UKube-1 28 Nov 19:27:42 19:29:50 14° 56° (NE) 19:31:58 .
